Flag for Germany Weather past 2 weeks in Güstrow, Mecklenburg-Western Pomerania, Germany

Now
50 °F

Passing clouds.


Feels Like: 50 °F
Forecast: 49 / 65 °F
Wind: 2 mph from Southwest

Location: Laage

Current Time: Sep 3, 2015 at 5:35:41 AM

Latest Report: Sep 3, 2015 at 4:20 AM


Visibility: N/A

Pressure: 29.95 "Hg

Humidity: 94%

Dew point: 48 °F

Location of GüstrowLocation

Historic Weather in Güstrow — Graph

°F

Güstrow temperature yesterday

Maximum temperature yesterday: 66 °F (at 4:20 PM)
Minimum temperature yesterday: 54 °F (at 4:20 AM)
Average temperature yesterday: 59 °F

Past Weeks' High & Low Weather Summary

 TemperatureHumidityPressure
High82 °F (Aug 31, 6:20 PM)100% (Aug 20, 5:20 AM)30.30 "Hg (Aug 20, 5:20 AM)
Low50 °F (Aug 20, 6:20 AM)23% (Aug 21, 3:20 PM)29.68 "Hg (Aug 24, 7:20 PM)
Average65 °F72%29.99 "Hg
* Reported Aug 19 4:20 AM — Sep 3 4:20 AM, Güstrow, Weather by CustomWeather, © 2015

Note: Actual official high and low records may vary slightly from our data, if they occured in-between our weather recording intervals... More about our weather records

Advertising

Güstrow weather history for previous 24 hours

 ConditionsComfort  
Time TempWeatherWind HumidityBarometerVisibility
4:20 AM
Thu, Sep 3
50 °FPassing clouds.2 mph94%29.95 "HgN/A
3:20 AM50 °FPassing clouds.1 mph94%29.95 "HgN/A
2:20 AM50 °FPassing clouds.2 mph94%29.95 "HgN/A
1:20 AM54 °FPassing clouds.3 mph88%29.95 "HgN/A
12:20 AM52 °FPassing clouds.3 mph88%29.95 "HgN/A
11:20 PM
Wed, Sep 2
55 °FPassing clouds.5 mph82%29.95 "HgN/A
10:20 PM57 °FCool.5 mph77%29.95 "HgN/A
9:20 PM59 °FPassing clouds.5 mph68%29.95 "HgN/A
8:20 PM61 °FScattered clouds.5 mph63%29.95 "HgN/A
7:20 PM63 °FPassing clouds.6 mph59%29.95 "HgN/A
6:20 PM66 °FPassing clouds.8 mph49%29.92 "HgN/A
5:20 PM66 °FPassing clouds.12 mph49%29.92 "HgN/A
4:20 PM66 °FScattered clouds.13 mph49%29.92 "HgN/A
3:20 PM64 °FScattered clouds.13 mph52%29.92 "HgN/A
2:20 PM64 °FScattered clouds.12 mph56%29.92 "HgN/A
1:20 PM63 °FScattered clouds.14 mph59%29.92 "HgN/A
12:20 PM64 °FPassing clouds.14 mph60%29.92 "HgN/A
11:20 AM61 °FPassing clouds.14 mph68%29.92 "HgN/A
10:20 AM61 °FPassing clouds.12 mph72%29.92 "HgN/A
9:20 AM57 °FScattered clouds.13 mph82%29.92 "HgN/A
8:58 AM55 °FScattered clouds.10 mph88%29.92 "HgN/A
8:20 AM54 °FBroken clouds.9 mph94%29.92 "HgN/A
7:20 AM54 °FPartly sunny.8 mph94%29.89 "HgN/A
7:00 AM54 °FPassing clouds.6 mph94%29.89 "HgN/A
5:20 AM54 °FPassing clouds.7 mph94%29.89 "HgN/A
Weather by CustomWeather, © 2015

See weather overviewHow to use our weather pages